WetterOnline ( https://www.wetteronline.at )

Wetter aktuell Görlitz

Aktuelles Wetter: Görlitz (240m)

6-stündlich | Neueste Meldungen
Ortszeit Temperatur Wetter
Di, 20.08. 14:00 24.4° C bewölkt
Di, 20.08. 8:00 14.7° C bedeckt
Di, 20.08. 2:00 14.3° C bedeckt
Mo, 19.08. 20:00 18.1° C wolkig
Mo, 19.08. 14:00 18.2° C leichter Regen
Mo, 19.08. 8:00 17.8° C wolkig
Mo, 19.08. 2:00 17.7° C leicht bewölkt
So, 18.08. 20:00 27.8° C wolkenlos
Ortszeit Temperatur Wetter
Di, 20.08. 14:00 24.4° C bewölkt
Di, 20.08. 13:50 24.4° C bewölkt
Di, 20.08. 13:40 24.5° C bewölkt
Di, 20.08. 13:30 24.2° C bewölkt
Di, 20.08. 13:20 24.2° C bewölkt
Di, 20.08. 13:10 23.9° C wolkig
Di, 20.08. 13:00 23.5° C bewölkt
Di, 20.08. 12:30 21.9° C bewölkt
Di, 20.08. 12:00 21.4° C bedeckt
Di, 20.08. 11:30 20.2° C bewölkt
Di, 20.08. 11:00 19.7° C bewölkt
Ortszeit Relative Feuchte Sichtweite
Di, 20.08. 14:00 47% -
Di, 20.08. 8:00 95% 22 km
Di, 20.08. 2:00 97% 5.0 km
Mo, 19.08. 20:00 85% 60 km
Mo, 19.08. 14:00 93% 9 km
Mo, 19.08. 8:00 93% 45 km
Mo, 19.08. 2:00 93% 60 km
So, 18.08. 20:00 41% >70 km
Ortszeit Relative Feuchte Sichtweite
Di, 20.08. 14:00 47% -
Di, 20.08. 13:50 47% -
Di, 20.08. 13:40 44% -
Di, 20.08. 13:30 44% 60 km
Di, 20.08. 13:20 44% -
Di, 20.08. 13:10 44% -
Di, 20.08. 13:00 49% 60 km
Di, 20.08. 12:30 55% >70 km
Di, 20.08. 12:00 60% 55 km
Di, 20.08. 11:30 68% 60 km
Di, 20.08. 11:00 70% >70 km
Ortszeit Niederschlagsmenge Niederschlagsart
Di, 20.08. 14:00 0.0 l/m2 in 6 Std. -
Di, 20.08. 8:00 0.0 l/m2 in 12 Std. -
Di, 20.08. 2:00 0.0 l/m2 in 6 Std. -
Mo, 19.08. 20:00 10 l/m2 in 12 Std. Regen
Mo, 19.08. 14:00 9 l/m2 in 6 Std. Regen
Mo, 19.08. 8:00 12 l/m2 in 12 Std. Regen
Mo, 19.08. 2:00 12 l/m2 in 6 Std. Regenschauer
So, 18.08. 20:00 0.1 l/m2 in 12 Std. -
Ortszeit Niederschlagsmenge Niederschlagsart
Di, 20.08. 14:00 0.0 l/m2 in 1 Std. -
Di, 20.08. 13:50 keine Meldung -
Di, 20.08. 13:40 keine Meldung -
Di, 20.08. 13:30 0.0 l/m2 in 1 Std. -
Di, 20.08. 13:20 keine Meldung -
Di, 20.08. 13:10 keine Meldung -
Di, 20.08. 13:00 0.0 l/m2 in 1 Std. -
Di, 20.08. 12:30 0.0 l/m2 in 1 Std. -
Di, 20.08. 12:00 0.0 l/m2 in 1 Std. -
Di, 20.08. 11:30 0.0 l/m2 in 1 Std. -
Di, 20.08. 11:00 0.0 l/m2 in 1 Std. -
Ortszeit Stärke Spitze Richtung
km/h Bft. km/h Grad Sektor
Di, 20.08. 14:00 4 1 18 320° NW
Di, 20.08. 8:00 4 1 11 180° S
Di, 20.08. 2:00 6 1 15 160° S
Mo, 19.08. 20:00 7 2 18 170° S
Mo, 19.08. 14:00 6 1 31 300° NW
Mo, 19.08. 8:00 6 1 17 260° W
Mo, 19.08. 2:00 13 3 44 180° S
So, 18.08. 20:00 17 3 44 220° SW
Ortszeit Stärke Spitze Richtung
km/h Bft. km/h Grad Sektor
Di, 20.08. 14:00 4 1 14 320° NW
Di, 20.08. 13:50 4 1 - 320° NW
Di, 20.08. 13:40 7 2 - 200° S
Di, 20.08. 13:30 6 1 17 50° NO
Di, 20.08. 13:20 6 1 - 50° NO
Di, 20.08. 13:10 7 2 - 80° O
Di, 20.08. 13:00 6 1 15 80° O
Di, 20.08. 12:30 9 2 15 110° O
Di, 20.08. 12:00 7 2 14 110° O
Di, 20.08. 11:30 7 2 14 120° SO
Di, 20.08. 11:00 9 2 19 120° SO
Ortszeit Untergrenze Bedeckung Gattung
total tief tief mittel hoch
Di, 20.08. 14:00 2400 m 8/8 5/8 - - -
Di, 20.08. 8:00 2700 m 8/8 8/8 - - -
Di, 20.08. 2:00 6300 m 8/8 8/8 - - -
Mo, 19.08. 20:00 8100 m 8/8 0/8 - - -
Mo, 19.08. 14:00 180 m 8/8 8/8 - - -
Mo, 19.08. 8:00 1800 m 8/8 1/8 - - -
Mo, 19.08. 2:00 5100 m 4/8 3/8 - - -
So, 18.08. 20:00 - 0/8 0/8 - - -
Ortszeit Bedeckungsgrad in Achtel und Wolkenuntergrenze
Di, 20.08. 14:00 5(2400m) 8(5400m)
Di, 20.08. 13:50 5(2400m) 8(5400m)
Di, 20.08. 13:40 5(2400m) 8(5400m)
Di, 20.08. 13:30 6(2400m) 7(5400m) 7(9000m)
Di, 20.08. 13:20 6(2400m) 7(5400m) 7(9000m)
Di, 20.08. 13:10 5(2400m) 6(5700m) 7(9000m)
Di, 20.08. 13:00 7(2700m) 7(5700m) 7(9000m)
Di, 20.08. 12:30 7(2700m) 7(3300m)
Di, 20.08. 12:00 8(2700m) 8(3300m)
Di, 20.08. 11:30 7(3000m) 7(6000m) 8(6000m)
Di, 20.08. 11:00 6(2700m) 7(3300m) 7(6300m)
Ortszeit Luftdruck NN (hPa) Tendenz (hPa in 3 Std.)
Di, 20.08. 14:00 1021 - 0,3
Di, 20.08. 8:00 1022 + 0,6
Di, 20.08. 2:00 1020 + 0,4
Mo, 19.08. 20:00 1018 - 0,1
Mo, 19.08. 14:00 1017 + 2,0
Mo, 19.08. 8:00 1015 + 1,7
Mo, 19.08. 2:00 1012 + 2,3
So, 18.08. 20:00 1007 - 0,2
Ortszeit Luftdruck NN (hPa) Tendenz (hPa in 3 Std.)
Di, 20.08. 14:00 1021 - 0,3
Di, 20.08. 13:50 1021 keine Meldung
Di, 20.08. 13:40 1021 keine Meldung
Di, 20.08. 13:30 1021 - 0,3
Di, 20.08. 13:20 1021 keine Meldung
Di, 20.08. 13:10 1021 keine Meldung
Di, 20.08. 13:00 1021 - 0,1
Di, 20.08. 12:30 1021 + 0,4
Di, 20.08. 12:00 1021 + 0,1
Di, 20.08. 11:30 1021 + 0,3
Di, 20.08. 11:00 1021 + 0,2
Ortszeit Schneehöhe (cm)
Di, 20.08. 14:00 -
Di, 20.08. 8:00 -
Di, 20.08. 2:00 -
Mo, 19.08. 20:00 -
Mo, 19.08. 14:00 -
Mo, 19.08. 8:00 -
Mo, 19.08. 2:00 -
So, 18.08. 20:00 -
Ortszeit Schneehöhe (cm)
Di, 20.08. 14:00 -
Di, 20.08. 13:50 -
Di, 20.08. 13:40 -
Di, 20.08. 13:30 -
Di, 20.08. 13:20 -
Di, 20.08. 13:10 -
Di, 20.08. 13:00 -
Di, 20.08. 12:30 -
Di, 20.08. 12:00 -
Di, 20.08. 11:30 -
Di, 20.08. 11:00 -
Link zu dieser Seite / Seite empfehlen

Das Wetter in ...